This demonstration page uses our WeatherBlox Daily Observations layout. Learn more.

Left ArrowRight Arrow

Hourly Observations for February 27, 2021

Temp ( °F °C ) Dew Point ( °F °C ) Humidity (%) Winds ( mph kmh ) Pressure ( in mb ) Visibility ( mi km ) Precip ( " mm )
12:15 am 00:15 Clear 37 2.5 19 -7.3 49 49 W 6 9 29.86 1011 10 16 N/A
12:35 am 00:35 Clear 36 2.2 19 -7.3 50 50 W 8 13 29.87 1012 10 16 N/A
12:55 am 00:55 Clear 35 1.5 19 -7 54 54 WSW 6 9 29.91 1013 10 16 N/A
1:15 am 01:15 Clear 36 2.4 19 -7.2 50 50 WSW 9 15 29.90 1013 10 16 N/A
1:35 am 01:35 Clear 38 3.2 18 -7.9 44 44 WSW 6 9 29.90 1013 10 16 N/A
1:55 am 01:55 Clear 35 1.8 20 -6.7 54 54 SW 5 7 29.91 1013 10 16 N/A
2:15 am 02:15 Clear 34 1 20 -6.4 58 58 N N/A 29.90 1013 10 16 N/A
2:35 am 02:35 Clear 34 0.9 20 -6.5 58 58 W 3 6 29.90 1012 10 16 N/A
2:55 am 02:55 Clear 33 0.7 19 -7.1 56 56 W 3 6 29.90 1012 10 16 N/A
3:15 am 03:15 Clear 31 -0.4 21 -5.9 67 67 W 3 6 29.89 1012 10 16 N/A
3:35 am 03:35 Clear 32 -0.1 20 -6.9 61 61 W 3 6 29.89 1012 10 16 N/A
3:55 am 03:55 Clear 32 -0.1 19 -7 60 60 N N/A 29.89 1012 10 16 N/A
4:15 am 04:15 Clear 30 -1.3 20 -6.8 67 67 N N/A 29.90 1012 10 16 N/A
4:35 am 04:35 Clear 28 -2.5 21 -6.1 77 77 N N/A 29.91 1013 10 16 N/A
4:55 am 04:55 Clear 28 -2.2 20 -6.4 73 73 N N/A 29.92 1013 10 16 N/A
5:15 am 05:15 Clear 27 -2.9 21 -6.2 78 78 N N/A 29.92 1013 10 16 N/A
5:35 am 05:35 Clear 27 -3 22 -5.5 83 83 N N/A 29.91 1013 10 16 N/A
5:55 am 05:55 Clear 28 -2.1 23 -5 81 81 SSE 5 7 29.91 1013 10 16 N/A
6:15 am 06:15 Clear 28 -2.2 21 -6.3 74 74 N N/A 29.92 1013 10 16 N/A
6:35 am 06:35 Clear 26 -3.1 22 -5.5 84 84 N N/A 29.92 1013 10 16 N/A
6:55 am 06:55 Clear 27 -3 21 -5.9 81 81 N N/A 29.92 1013 10 16 N/A
7:15 am 07:15 Sunny 25 -3.9 21 -6.1 85 85 ESE 6 9 29.93 1014 10 16 N/A
7:35 am 07:35 Sunny 27 -2.7 22 -5.4 82 82 ESE 5 7 29.91 1013 10 16 N/A
7:55 am 07:55 Sunny 29 -1.6 24 -4.6 80 80 E 7 11 29.90 1013 10 16 N/A
8:15 am 08:15 Sunny 33 0.7 24 -4.4 69 69 E 7 11 29.87 1011 10 16 N/A
8:35 am 08:35 Sunny 35 1.4 25 -3.8 69 69 ENE 9 15 29.85 1011 10 16 N/A
8:55 am 08:55 Sunny 37 2.7 26 -3.6 64 64 ENE 10 17 29.85 1011 10 16 N/A
9:15 am 09:15 Sunny 38 3.4 26 -3.1 63 63 ENE 10 17 29.82 1010 10 16 N/A
9:35 am 09:35 Sunny 41 4.9 27 -2.8 58 58 ENE 12 19 29.80 1009 10 16 N/A
9:55 am 09:55 Sunny 42 5.8 27 -2.6 55 55 ENE 15 24 29.77 1008 10 16 N/A
10:15 am 10:15 Sunny 44 6.4 30 -1 59 59 ENE 14 22 29.75 1008 10 16 N/A
10:35 am 10:35 Sunny 45 7.1 32 0.2 62 62 E 17 28 29.73 1007 10 16 N/A
10:55 am 10:55 Sunny 46 7.5 34 1.2 65 65 E 18 30 29.71 1006 10 16 N/A
11:15 am 11:15 Sunny 46 7.7 35 1.8 67 67 E 18 30 29.70 1006 10 16 N/A
11:35 am 11:35 Partly Cloudy 46 7.8 36 2.1 68 68 ESE 20 31 29.69 1005 10 16 N/A
11:55 am 11:55 Partly Cloudy 47 8.6 38 3.2 69 69 ESE 13 20 29.69 1005 10 16 N/A
12:15 pm 12:15 Partly Cloudy 49 9.2 37 2.8 65 65 SSE 20 31 29.67 1005 10 16 N/A
12:35 pm 12:35 Partly Cloudy 45 7.1 37 2.5 73 73 SSE 25 41 29.67 1005 10 16 N/A
12:55 pm 12:55 Mostly Cloudy 41 5 36 2 81 81 S 15 24 29.71 1006 10 16 N/A
1:15 pm 13:15 Cloudy with Mist and Fog 39 3.7 36 2 89 89 SSE 12 19 29.71 1006 5 8 N/A
1:35 pm 13:35 Cloudy with Mist and Fog 38 3.3 36 2.1 92 92 SSE 12 19 29.70 1006 3 4 N/A
1:55 pm 13:55 Cloudy with Mist and Fog 38 3.3 36 2.3 93 93 SSE 10 17 29.69 1006 3 5 N/A
2:15 pm 14:15 Cloudy with Mist and Fog 38 3.6 37 2.7 94 94 SSE 8 13 29.68 1005 3 4 N/A
2:35 pm 14:35 Cloudy with Mist and Fog 39 3.8 37 3 95 95 SSE 8 13 29.68 1005 5 8 N/A
2:55 pm 14:55 Cloudy with Mist and Fog 40 4.4 38 3.3 93 93 SE 8 13 29.66 1004 5 8 N/A
3:15 pm 15:15 Cloudy 41 4.8 38 3.5 91 91 SSE 8 13 29.66 1004 7 11 N/A
3:35 pm 15:35 Cloudy 42 5.3 38 3.5 88 88 SSE 5 7 29.66 1005 10 16 N/A
3:55 pm 15:55 Cloudy 43 6.2 39 4.1 87 87 SSE 6 9 29.66 1004 10 16 N/A
4:15 pm 16:15 Partly Cloudy 44 6.6 39 4 84 84 N N/A 29.66 1004 10 16 N/A
4:35 pm 16:35 Partly Cloudy 44 6.7 40 4.2 84 84 N N/A 29.65 1004 10 16 N/A
4:55 pm 16:55 Sunny 45 7 40 4.3 83 83 SE 3 6 29.65 1004 10 16 N/A
5:15 pm 17:15 Sunny 45 7 40 4.4 84 84 N 7 11 29.66 1004 10 16 N/A
5:35 pm 17:35 Sunny 44 6.5 40 4.2 85 85 N 7 11 29.66 1005 10 16 N/A
5:55 pm 17:55 Sunny 42 5.4 38 3.5 88 88 NNE 7 11 29.68 1005 10 16 N/A
6:15 pm 18:15 Sunny 39 4 36 2.3 89 89 NE 5 7 29.72 1006 7 11 N/A
6:35 pm 18:35 Clear 38 3.2 36 2.1 93 93 N N/A 29.73 1007 7 11 N/A
6:55 pm 18:55 Clear with Mist and Fog 37 2.9 36 2 94 94 NNE 5 7 29.75 1007 5 8 N/A
7:15 pm 19:15 Clear with Mist and Fog 37 2.5 35 1.7 95 95 N 5 7 29.75 1007 5 8 N/A
7:35 pm 19:35 Clear with Mist and Fog 36 2.2 35 1.5 95 95 N N/A 29.76 1008 5 8 N/A
7:55 pm 19:55 Clear with Mist and Fog 34 1.3 33 0.7 96 96 NW 8 13 29.79 1009 4 6 N/A
8:15 pm 20:15 Clear with Mist and Fog 34 1.2 33 0.6 96 96 NW 6 9 29.80 1009 4 6 N/A
8:35 pm 20:35 Clear with Mist and Fog 34 1.2 33 0.7 97 97 NW 6 9 29.80 1009 5 8 N/A
8:55 pm 20:55 Clear 35 1.5 34 1 97 97 NW 6 9 29.81 1009 7 11 N/A
9:15 pm 21:15 Mostly Cloudy 35 1.7 34 1.1 96 96 NW 6 9 29.84 1010 10 16 N/A
9:35 pm 21:35 Partly Cloudy 36 2 34 1.2 95 95 WNW 10 17 29.85 1011 10 16 N/A
9:55 pm 21:55 Clear 36 2.4 34 1.2 92 92 NW 17 28 29.86 1011 10 16 N/A
10:15 pm 22:15 Clear 37 2.6 32 -0.1 83 83 NNW 20 31 29.87 1012 10 16 N/A
10:35 pm 22:35 Clear 36 2.1 31 -0.6 83 83 NW 15 24 29.89 1012 10 16 N/A
10:55 pm 22:55 Clear 35 1.8 30 -1 82 82 NNW 12 19 29.90 1012 10 16 N/A
11:15 pm 23:15 Clear 34 1.2 30 -1.1 85 85 NW 13 20 29.92 1013 10 16 N/A
11:35 pm 23:35 Clear 34 1 30 -1.3 85 85 NW 14 22 29.92 1013 10 16 N/A
11:55 pm 23:55 Clear 34 1 29 -1.5 84 84 NW 12 19 29.92 1013 10 16 N/A

Powered by AerisWeather